Location: Brantley
(31.5822°N, 86.2569°W)
Time: 03:22:30
(UTC+00:00)

Vanguard 3 - Pass Details

Date: 19 February 2026
Orbit: 507 x 3205 km, 33.4° (Epoch: 7 March)

Event Time Altitude Azimuth Distance (km) Brightness Sun altitude
Rises 00:10:14 0° 274° (W) 4,600 13.0 -8.3°
Reaches altitude 10° 00:14:02 10° 276° (W) 3,181 11.7 -9.1°
Maximum altitude 00:21:15 75° 2° (N) 834 7.2 -10.6°
Enters shadow 00:24:54 16° 86° (E) 1,688 8.1 -11.4°
Drops below altitude 10° 00:25:40 10° 88° (E) 1,983 - -11.6°
Sets 00:27:34 0° 90° (E) 2,754 - -12.0°
